This is the latest recevied weather packets stored in our database for station/object G0TGD-10. If no packets are shown the sender has not sent any weather packets the latest 10 day(s).
| Time | Temp. | Humidity | Pressure | Rain* | Wind** | Luminosity | Snow |
|---|---|---|---|---|---|---|---|
| 1777445421 | 7.78° C | 64% | 1028 hPa | - | - | - | - |
| 1777444521 | 7.22° C | 64% | 1027.9 hPa | - | - | - | - |
| 1777443621 | 6.67° C | 65% | 1027.9 hPa | - | - | - | - |
| 1777442721 | 6.11° C | 65% | 1027.9 hPa | - | - | - | - |
| 1777441821 | 5.56° C | 65% | 1027.8 hPa | - | - | - | - |
| 1777440921 | 5° C | 65% | 1027.8 hPa | - | - | - | - |
| 1777440021 | 4.44° C | 65% | 1027.6 hPa | - | - | - | - |
| 1777439121 | 4.44° C | 65% | 1027.6 hPa | - | - | - | - |
| 1777438220 | 3.89° C | 65% | 1027.8 hPa | - | - | - | - |
| 1777437320 | 3.89° C | 65% | 1027.9 hPa | - | - | - | - |
| 1777436420 | 3.89° C | 64% | 1027.8 hPa | - | - | - | - |
| 1777435520 | 3.89° C | 64% | 1027.8 hPa | - | - | - | - |
| 1777434620 | 3.89° C | 64% | 1028 hPa | - | - | - | - |
| 1777433720 | 3.89° C | 64% | 1027.9 hPa | - | - | - | - |
| 1777432820 | 4.44° C | 64% | 1028 hPa | - | - | - | - |
| 1777431920 | 4.44° C | 64% | 1028.1 hPa | - | - | - | - |
| 1777431020 | 4.44° C | 64% | 1028 hPa | - | - | - | - |
| 1777430120 | 4.44° C | 63% | 1028 hPa | - | - | - | - |
| 1777429220 | 4.44° C | 63% | 1028.1 hPa | - | - | - | - |
| 1777428319 | 4.44° C | 63% | 1028 hPa | - | - | - | - |
| 1777427419 | 4.44° C | 63% | 1028.1 hPa | - | - | - | - |
| 1777426519 | 4.44° C | 62% | 1028.3 hPa | - | - | - | - |
| 1777425619 | 4.44° C | 62% | 1028.4 hPa | - | - | - | - |
| 1777424719 | 4.44° C | 62% | 1028.4 hPa | - | - | - | - |
| 1777423819 | 5° C | 62% | 1028.4 hPa | - | - | - | - |
* Rain since midnight (hover to see other rain measurements)
** Current wind speed in m/s (hover to see current wind gust speed)